COSMOS 1275 DEB, 39968

Orbit data source: Space-Track

COSMOS 1275 DEB, 39968 is space debris in LEO originally from a launch on Thu, 04 Jun 1981 UTC launched from the Plesetsk Missile And Space Complex (PKMTR). Debris objects in space refer to the collection of defunct objects orbiting the Earth. Examples of debris include non-operational satellites, rocket bodies, and fragments generated from explosions, collisions, or faulty payload assembly.

Loading next visibility...
Identifier
39968, 1981-053PE
Orbit
LEO
Country
Flag of CISCIS
Related business
Manufacturer
Unknown
Mission
Spacecraft
Bus & Motor
Unknown
Mass
Unknown
Launch date (UTC)
1981-06-04 (45 years ago)
Launch vehicle
Unknown
Launch site
Plesetsk Missile And Space Complex (PKMTR)
Object type
Payload
Rocket body
Debris
Shape & HBR
Unknown shape, 0.1 m
Radar Cross Section
Medium (>0.1 m² and <1 m²)

Expand to show TLE details & history
Last TLE update: 1 month ago

TLE from 1 month ago
0 COSMOS 1275 DEB
1 39968U 81053PE  26204.57029000  .00000567  00000-0  52596-3 0  9997
2 39968  83.1472 320.0618 0075113 304.9196  54.4921 13.79466244 66880
Epoch: 2026-07-23T13:41Z
TLE epoch observation values (Epoch: 2026-07-23T13:41:13.055Z)
Latitude
0.00005°
Longitude
173.44803°
Altitude
936.923 km
Speed
7.399 km/s
True Right ascension
21h 20m 14s
True Declination
0° 00' 00"
Sunlit
Object was in full shadow at epoch
Visualization orbit readout
Latitude
Unknown
Longitude
Unknown
Altitude
Unknown
Speed
Unknown
Apparent Right ascension
Unknown
Apparent Declination
Unknown
Sunlit
N/A
Visualization observer readout
Local Sidereal Time
00:48:08
Azimuth
Unknown
Elevation
Unknown
Doppler factor
Unknown
Orbital elements
Apogee altitude
1,018.056 km
Perigee altitude
907.774 km
Semi-major axis
7,341.052 km
Eccentricity
0.00751
Inclination
83.1472°
RAAN
320.0618°
Arg. of periapsis
304.9196°
True anomaly
55.19659°
Mean anomaly
54.4921°
Eccentric anomaly
54.84396°
Mean motion
3.45069 °/min
Orbital period
104.33 mins
BSTAR
0.00052596
Loading maneuver chart data...
Computing Atmospheric mass density...

Documentation

Showing up to 5 results
|